Location: Unspecified
(0.0000°N, 0.0000°E)
Time: 04:34:59
(UTC+00:00)

Vanguard 3 - Pass Details

Date: 16 April 2021
Orbit: 507 x 3262 km, 33.4° (Epoch: 17 May)

Event Time Altitude Azimuth Distance (km) Brightness Sun altitude
Rises 20:14:06 0° 224° (SW) 6,866 12.3 -33.0°
Reaches altitude 10° 20:19:45 10° 217° (SW) 5,511 11.6 -34.4°
Enters shadow 20:31:21 36° 174° (S) 2,927 9.7 -37.2°
